• In Hungary
  • List of Countries
  • For 7 days
  • Water Temperature
  • Satellite Maps
  • Weather Map
  • News
  • Weather Widgets
  • user-avatar
    Login

    Hourly Weather Vlasevka

    Today, 23 October, Tuesday

    Time Temperature Precipitation Wind Pressure Humidity
    00:00 +5°C° 0.7 mm 4 mps 738 mmHg 89%
    01:00 +5°C° 0.7 mm 3 mps 738 mmHg 90%
    02:00 +5°C° 0.7 mm 3 mps 737 mmHg 91%
    03:00 +5°C° 0.2 mm 3 mps 737 mmHg 92%
    04:00 +4°C° 0.2 mm 3 mps 737 mmHg 92%
    05:00 +4°C° 0.2 mm 3 mps 736 mmHg 92%
    06:00 +4°C° 0 mm 2 mps 736 mmHg 93%
    07:00 +4°C° 0 mm 2 mps 736 mmHg 93%
    08:00 +3°C° 0 mm 2 mps 736 mmHg 94%
    09:00 +4°C° 0 mm 2 mps 735 mmHg 89%
    10:00 +5°C° 0 mm 2 mps 735 mmHg 84%
    11:00 +6°C° 0 mm 2 mps 734 mmHg 78%
    12:00 +6°C° 0 mm 2 mps 733 mmHg 75%
    13:00 +5°C° 0 mm 3 mps 733 mmHg 72%
    14:00 +7°C° 0 mm 3 mps 732 mmHg 68%
    15:00 +5°C° 0 mm 3 mps 731 mmHg 72%
    16:00 +4°C° 0 mm 3 mps 730 mmHg 75%
    17:00 +4°C° 0 mm 3 mps 729 mmHg 79%
    18:00 +4°C° 0 mm 3 mps 728 mmHg 79%
    19:00 +4°C° 0 mm 3 mps 727 mmHg 79%
    20:00 +3°C° 0 mm 4 mps 726 mmHg 80%
    21:00 +3°C° 0.1 mm 4 mps 725 mmHg 79%
    22:00 +3°C° 0.1 mm 4 mps 724 mmHg 79%
    23:00 +3°C° 0.1 mm 4 mps 723 mmHg 79%

    Tomorrow, 24 October, Wednesday

    Time Temperature Precipitation Wind Pressure Humidity
    00:00 +2°C° 0.4 mm 5 mps 722 mmHg 80%
    01:00 +2°C° 0.4 mm 5 mps 720 mmHg 81%
    02:00 +2°C° 0.4 mm 5 mps 719 mmHg 83%
    03:00 +2°C° 0.5 mm 5 mps 719 mmHg 84%
    04:00 +3°C° 0.5 mm 4 mps 718 mmHg 85%
    05:00 +3°C° 0.5 mm 4 mps 717 mmHg 86%
    06:00 +3°C° 0.5 mm 4 mps 717 mmHg 87%
    07:00 +3°C° 0.5 mm 3 mps 716 mmHg 88%
    08:00 +3°C° 0.5 mm 3 mps 716 mmHg 89%
    09:00 +4°C° 0.4 mm 3 mps 716 mmHg 89%
    10:00 +5°C° 0.4 mm 2 mps 717 mmHg 89%
    11:00 +5°C° 0.4 mm 2 mps 717 mmHg 88%
    12:00 +6°C° 0.3 mm 2 mps 717 mmHg 87%
    13:00 +7°C° 0.3 mm 1 mps 717 mmHg 86%
    14:00 +7°C° 0.3 mm 1 mps 717 mmHg 85%
    15:00 +6°C° 0.2 mm 1 mps 718 mmHg 88%
    16:00 +6°C° 0.2 mm 1 mps 718 mmHg 90%
    17:00 +5°C° 0.2 mm 1 mps 719 mmHg 93%
    18:00 +5°C° 0.1 mm 1 mps 719 mmHg 93%
    19:00 +4°C° 0.1 mm 2 mps 719 mmHg 93%
    20:00 +4°C° 0.1 mm 2 mps 720 mmHg 93%
    21:00 +4°C° 0.1 mm 2 mps 720 mmHg 92%
    22:00 +3°C° 0.1 mm 3 mps 721 mmHg 92%
    23:00 +3°C° 0.1 mm 3 mps 721 mmHg 91%

    Day after tomorrow, 25 October, Thursday

    Time Temperature Precipitation Wind Pressure Humidity
    00:00 +3°C° 0.1 mm 3 mps 722 mmHg 90%
    01:00 +3°C° 0.1 mm 4 mps 722 mmHg 88%
    02:00 +3°C° 0.1 mm 4 mps 722 mmHg 87%
    03:00 +1°C° 0.3 mm 4 mps 722 mmHg 87%
    04:00 +1°C° 0.3 mm 4 mps 723 mmHg 87%
    05:00 +1°C° 0.3 mm 5 mps 723 mmHg 86%
    06:00 +1°C° 0.1 mm 5 mps 723 mmHg 85%
    07:00 +1°C° 0.1 mm 5 mps 723 mmHg 84%
    08:00 0°C° 0.1 mm 5 mps 723 mmHg 83%
    09:00 +1°C° 0 mm 5 mps 723 mmHg 81%
    10:00 +1°C° 0 mm 5 mps 723 mmHg 79%
    11:00 +1°C° 0 mm 5 mps 723 mmHg 77%
    12:00 +1°C° 0 mm 5 mps 723 mmHg 76%
    13:00 +1°C° 0 mm 5 mps 723 mmHg 76%
    14:00 +1°C° 0 mm 5 mps 723 mmHg 75%
    15:00 +1°C° 0 mm 5 mps 723 mmHg 76%
    16:00 +1°C° 0 mm 5 mps 723 mmHg 76%
    17:00 +1°C° 0 mm 5 mps 723 mmHg 76%
    18:00 +1°C° 0 mm 5 mps 723 mmHg 78%
    19:00 +1°C° 0 mm 5 mps 724 mmHg 80%
    20:00 +1°C° 0 mm 4 mps 724 mmHg 81%
    21:00 0°C° 0 mm 4 mps 724 mmHg 84%
    22:00 0°C° 0 mm 4 mps 724 mmHg 86%
    23:00 0°C° 0 mm 4 mps 725 mmHg 89%

    26 October, Friday

    Time Temperature Precipitation Wind Pressure Humidity
    00:00 0°C° 0 mm 4 mps 725 mmHg 89%
    01:00 0°C° 0 mm 4 mps 726 mmHg 89%
    02:00 0°C° 0 mm 3 mps 726 mmHg 89%
    03:00 0°C° 0 mm 3 mps 727 mmHg 90%
    04:00 0°C° 0 mm 3 mps 727 mmHg 91%
    05:00 0°C° 0 mm 3 mps 727 mmHg 92%
    06:00 0°C° 0 mm 3 mps 728 mmHg 92%
    07:00 0°C° 0 mm 3 mps 728 mmHg 91%
    08:00 0°C° 0 mm 3 mps 728 mmHg 90%
    09:00 +1°C° 0.1 mm 3 mps 729 mmHg 88%
    10:00 +1°C° 0.1 mm 3 mps 729 mmHg 85%
    11:00 +1°C° 0.1 mm 4 mps 729 mmHg 83%
    12:00 +1°C° 0 mm 4 mps 730 mmHg 82%
    13:00 +1°C° 0 mm 4 mps 730 mmHg 81%
    14:00 +1°C° 0 mm 4 mps 730 mmHg 80%
    15:00 +1°C° 0.1 mm 4 mps 731 mmHg 80%
    16:00 +2°C° 0.1 mm 3 mps 731 mmHg 81%
    17:00 +2°C° 0.1 mm 3 mps 732 mmHg 81%
    18:00 +2°C° 0.1 mm 3 mps 732 mmHg 84%
    19:00 +1°C° 0.1 mm 3 mps 732 mmHg 86%
    20:00 +1°C° 0.1 mm 3 mps 733 mmHg 89%
    21:00 0°C° 0 mm 3 mps 733 mmHg 90%
    22:00 0°C° 0 mm 3 mps 734 mmHg 92%
    23:00 0°C° 0 mm 3 mps 734 mmHg 94%

    27 October, Saturday

    Time Temperature Precipitation Wind Pressure Humidity
    00:00 -1°C° 0 mm 2 mps 734 mmHg 95%
    01:00 -1°C° 0 mm 2 mps 735 mmHg 95%
    02:00 -1°C° 0 mm 2 mps 735 mmHg 96%
    03:00 -1°C° 0 mm 2 mps 735 mmHg 96%
    04:00 -2°C° 0 mm 2 mps 736 mmHg 97%
    05:00 -2°C° 0 mm 2 mps 736 mmHg 97%
    06:00 -1°C° 0 mm 2 mps 736 mmHg 95%
    07:00 -1°C° 0 mm 2 mps 736 mmHg 94%
    08:00 0°C° 0 mm 3 mps 736 mmHg 92%
    09:00 +1°C° 0 mm 3 mps 735 mmHg 88%
    10:00 +1°C° 0 mm 4 mps 735 mmHg 84%
    11:00 +4°C° 0 mm 4 mps 735 mmHg 81%
    12:00 +3°C° 0.2 mm 5 mps 734 mmHg 81%
    13:00 +3°C° 0.2 mm 5 mps 734 mmHg 81%
    14:00 +3°C° 0.2 mm 5 mps 733 mmHg 81%
    15:00 +5°C° 0.4 mm 5 mps 733 mmHg 83%
    16:00 +5°C° 0.4 mm 5 mps 733 mmHg 86%
    17:00 +5°C° 0.4 mm 5 mps 732 mmHg 88%
    18:00 +5°C° 0.1 mm 5 mps 732 mmHg 88%
    19:00 +5°C° 0.1 mm 5 mps 732 mmHg 87%
    20:00 +6°C° 0.1 mm 4 mps 732 mmHg 87%
    21:00 +6°C° 0.2 mm 4 mps 733 mmHg 88%
    22:00 +5°C° 0.2 mm 4 mps 733 mmHg 90%
    23:00 +5°C° 0.2 mm 3 mps 733 mmHg 91%

    28 October, Sunday

    Time Temperature Precipitation Wind Pressure Humidity
    00:00 +5°C° 0.1 mm 3 mps 733 mmHg 92%
    01:00 +6°C° 0.1 mm 2 mps 733 mmHg 94%
    02:00 +5°C° 0.1 mm 2 mps 733 mmHg 95%
    03:00 +5°C° 0.1 mm 2 mps 733 mmHg 96%
    04:00 +5°C° 0.1 mm 2 mps 733 mmHg 96%
    05:00 +6°C° 0.1 mm 1 mps 733 mmHg 97%
    06:00 +6°C° 0.2 mm 1 mps 733 mmHg 97%
    07:00 +6°C° 0.2 mm 1 mps 733 mmHg 97%
    08:00 +6°C° 0.2 mm 1 mps 733 mmHg 97%
    09:00 +7°C° 0.4 mm 1 mps 733 mmHg 96%
    10:00 +7°C° 0.4 mm 1 mps 733 mmHg 95%
    11:00 +7°C° 0.4 mm 1 mps 733 mmHg 94%
    12:00 +7°C° 1.2 mm 1 mps 732 mmHg 95%
    13:00 +7°C° 1.2 mm 1 mps 732 mmHg 96%
    14:00 +6°C° 1.2 mm 2 mps 732 mmHg 97%
    15:00 +6°C° 1.7 mm 2 mps 731 mmHg 96%
    16:00 +6°C° 1.7 mm 2 mps 731 mmHg 96%
    17:00 +6°C° 1.7 mm 2 mps 730 mmHg 96%
    18:00 +6°C° 0.2 mm 2 mps 730 mmHg 96%
    19:00 +7°C° 0.2 mm 2 mps 730 mmHg 96%
    20:00 +7°C° 0.2 mm 2 mps 729 mmHg 95%
    21:00 +7°C° 0.1 mm 3 mps 730 mmHg 93%
    22:00 +6°C° 0.1 mm 4 mps 730 mmHg 91%
    23:00 +7°C° 0.1 mm 5 mps 730 mmHg 89%

    29 October, Monday

    Time Temperature Precipitation Wind Pressure Humidity
    00:00 +5°C° 0.1 mm 6 mps 731 mmHg 87%
    01:00 +4°C° 0.1 mm 6 mps 732 mmHg 85%
    02:00 +3°C° 0.1 mm 6 mps 733 mmHg 82%
    03:00 +3°C° 0 mm 5 mps 734 mmHg 83%
    04:00 +3°C° 0 mm 5 mps 735 mmHg 84%
    05:00 +3°C° 0 mm 4 mps 736 mmHg 85%
    06:00 +3°C° 0.1 mm 4 mps 737 mmHg 84%
    07:00 +4°C° 0.1 mm 4 mps 738 mmHg 83%
    08:00 +4°C° 0.1 mm 4 mps 739 mmHg 82%
    09:00 +4°C° 0 mm 4 mps 739 mmHg 80%
    10:00 +4°C° 0 mm 4 mps 740 mmHg 79%
    11:00 +4°C° 0 mm 4 mps 741 mmHg 77%
    12:00 +4°C° 0 mm 4 mps 742 mmHg 77%
    13:00 +4°C° 0 mm 4 mps 742 mmHg 78%
    14:00 +4°C° 0 mm 4 mps 743 mmHg 78%
    15:00 +4°C° 0 mm 3 mps 743 mmHg 80%
    16:00 +3°C° 0 mm 3 mps 744 mmHg 82%
    17:00 +4°C° 0 mm 2 mps 744 mmHg 84%
    18:00 +3°C° 0 mm 2 mps 744 mmHg 85%
    19:00 +3°C° 0 mm 2 mps 745 mmHg 86%
    20:00 +3°C° 0 mm 2 mps 745 mmHg 87%
    21:00 +2°C° 0 mm 2 mps 745 mmHg 88%
    22:00 +3°C° 0 mm 1 mps 746 mmHg 89%
    23:00 +3°C° 0 mm 1 mps 746 mmHg 90%
    Show more